TimeCST,TemperatureF,Dew PointF,Humidity,Sea Level PressureIn,VisibilityMPH,Wind Direction,Wind SpeedMPH,Gust SpeedMPH,PrecipitationIn,Events,Conditions,WindDirDegrees,DateUTC
12:15 AM,7.7,5.4,90,30.15,10.0,West,8.1,-,N/A,,Clear,280,2013-12-09 06:15:00
12:35 AM,8.4,5.9,89,30.15,10.0,WNW,8.1,-,N/A,,Clear,290,2013-12-09 06:35:00
1:15 AM,7.9,5.2,89,30.15,10.0,West,8.1,-,N/A,,Clear,280,2013-12-09 07:15:00
1:35 AM,7.0,4.1,88,30.16,10.0,West,8.1,-,N/A,,Clear,280,2013-12-09 07:35:00
1:55 AM,6.6,3.7,88,30.16,7.0,West,9.2,-,N/A,,Clear,280,2013-12-09 07:55:00
2:15 AM,5.9,3.0,88,30.16,10.0,WNW,9.2,-,N/A,,Clear,290,2013-12-09 08:15:00
2:35 AM,6.6,3.2,86,30.18,10.0,WNW,9.2,-,N/A,,Clear,300,2013-12-09 08:35:00
2:55 AM,4.8,1.2,85,30.18,10.0,WNW,8.1,-,N/A,,Clear,290,2013-12-09 08:55:00
3:15 AM,3.6,-0.0,85,30.18,10.0,WNW,8.1,-,N/A,,Clear,300,2013-12-09 09:15:00
3:35 AM,4.1,0.5,85,30.18,10.0,NW,10.4,-,N/A,,Clear,310,2013-12-09 09:35:00
3:55 AM,3.4,-0.6,84,30.19,10.0,WNW,11.5,-,N/A,,Clear,300,2013-12-09 09:55:00
4:35 AM,2.1,-3.3,78,30.21,10.0,WNW,9.2,-,N/A,,Clear,300,2013-12-09 10:35:00
4:55 AM,1.8,-4.2,76,30.22,10.0,WNW,10.4,-,N/A,,Clear,300,2013-12-09 10:55:00
5:15 AM,1.2,-4.9,75,30.24,10.0,WNW,10.4,-,N/A,,Clear,290,2013-12-09 11:15:00
5:35 AM,0.1,-6.2,75,30.25,10.0,WNW,9.2,-,N/A,,Clear,290,2013-12-09 11:35:00
5:55 AM,-0.4,-6.7,75,30.26,10.0,WNW,10.4,-,N/A,,Clear,290,2013-12-09 11:55:00
6:15 AM,-0.8,-7.1,75,30.26,10.0,WNW,8.1,-,N/A,,Clear,300,2013-12-09 12:15:00
6:35 AM,-0.9,-7.6,73,30.26,10.0,WNW,8.1,-,N/A,,Clear,300,2013-12-09 12:35:00
6:55 AM,-1.1,-7.8,73,30.27,10.0,NW,5.8,-,N/A,,Clear,310,2013-12-09 12:55:00
7:15 AM,-2.0,-8.5,74,30.28,10.0,WNW,6.9,-,N/A,,Clear,290,2013-12-09 13:15:00
7:35 AM,-2.2,-8.7,74,30.29,10.0,WNW,5.8,-,N/A,,Clear,290,2013-12-09 13:35:00
7:55 AM,-2.2,-8.7,74,30.29,10.0,WNW,9.2,-,N/A,,Clear,290,2013-12-09 13:55:00
8:15 AM,-1.7,-8.1,74,30.30,10.0,WNW,9.2,-,N/A,,Clear,290,2013-12-09 14:15:00
8:35 AM,-0.4,-7.2,73,30.30,10.0,WNW,10.4,-,N/A,,Clear,300,2013-12-09 14:35:00
8:55 AM,0.5,-6.7,72,30.32,10.0,WNW,10.4,-,N/A,,Clear,300,2013-12-09 14:55:00
9:15 AM,1.2,-6.2,71,30.31,10.0,NW,8.1,-,N/A,,Clear,310,2013-12-09 15:15:00
9:35 AM,2.1,-5.8,69,30.33,10.0,NW,8.1,-,N/A,,Clear,310,2013-12-09 15:35:00
9:55 AM,3.2,-5.1,68,30.33,10.0,NW,9.2,-,N/A,,Clear,320,2013-12-09 15:55:00
10:15 AM,3.9,-4.7,67,30.34,10.0,NW,6.9,-,N/A,,Clear,310,2013-12-09 16:15:00
10:35 AM,5.0,-4.0,66,30.35,10.0,NW,9.2,-,N/A,,Scattered Clouds,310,2013-12-09 16:35:00
10:55 AM,5.5,-4.0,65,30.35,10.0,NW,8.1,-,N/A,,Scattered Clouds,310,2013-12-09 16:55:00
11:15 AM,5.9,-4.0,64,30.35,10.0,NNW,5.8,-,N/A,,Mostly Cloudy,330,2013-12-09 17:15:00
11:35 AM,5.4,-4.0,65,30.34,10.0,NW,4.6,-,N/A,,Scattered Clouds,320,2013-12-09 17:35:00
11:55 AM,6.6,-3.3,64,30.33,10.0,WNW,6.9,-,N/A,,Clear,290,2013-12-09 17:55:00
12:15 PM,7.0,-3.1,63,30.33,10.0,West,4.6,-,N/A,,Clear,270,2013-12-09 18:15:00
12:35 PM,7.5,-3.3,61,30.33,10.0,West,5.8,-,N/A,,Clear,260,2013-12-09 18:35:00
12:55 PM,7.9,-2.7,62,30.32,10.0,West,5.8,-,N/A,,Clear,260,2013-12-09 18:55:00
1:15 PM,8.4,-2.7,61,30.31,10.0,West,6.9,-,N/A,,Clear,260,2013-12-09 19:15:00
1:35 PM,8.4,-1.7,64,30.30,10.0,SW,6.9,-,N/A,,Clear,230,2013-12-09 19:35:00
1:55 PM,8.6,-2.2,62,30.30,10.0,SW,6.9,-,N/A,,Clear,230,2013-12-09 19:55:00
2:15 PM,8.6,-2.2,62,30.29,10.0,SW,6.9,-,N/A,,Clear,220,2013-12-09 20:15:00
2:35 PM,8.6,-2.4,61,30.29,10.0,SW,6.9,-,N/A,,Clear,220,2013-12-09 20:35:00
2:55 PM,9.1,-2.2,60,30.28,10.0,SW,6.9,-,N/A,,Clear,220,2013-12-09 20:55:00
3:15 PM,9.3,-2.2,60,30.28,10.0,WSW,8.1,-,N/A,,Clear,240,2013-12-09 21:15:00
3:35 PM,9.0,-2.2,61,30.27,10.0,SW,6.9,-,N/A,,Clear,220,2013-12-09 21:35:00
3:55 PM,8.8,-2.2,61,30.27,10.0,SSW,5.8,-,N/A,,Clear,210,2013-12-09 21:55:00
4:15 PM,8.4,-2.2,62,30.26,10.0,SW,6.9,-,N/A,,Clear,220,2013-12-09 22:15:00
4:35 PM,7.3,-2.2,65,30.26,10.0,SW,8.1,-,N/A,,Clear,220,2013-12-09 22:35:00
4:55 PM,6.6,-2.7,66,30.26,10.0,SSW,8.1,-,N/A,,Clear,210,2013-12-09 22:55:00
5:15 PM,4.8,-3.5,69,30.24,10.0,South,4.6,-,N/A,,Clear,190,2013-12-09 23:15:00
5:35 PM,1.9,-5.6,71,30.23,10.0,SSW,6.9,-,N/A,,Clear,210,2013-12-09 23:35:00
5:55 PM,2.7,-4.7,71,30.23,10.0,SSW,10.4,-,N/A,,Clear,210,2013-12-09 23:55:00
6:15 PM,3.6,-4.0,71,30.22,10.0,SSW,12.7,-,N/A,,Clear,210,2013-12-10 00:15:00
6:35 PM,5.7,-2.4,69,30.22,10.0,SW,13.8,-,N/A,,Clear,230,2013-12-10 00:35:00
6:55 PM,3.6,-4.0,71,30.23,10.0,SW,12.7,-,N/A,,Clear,230,2013-12-10 00:55:00
7:15 PM,4.8,-3.3,69,30.23,10.0,SW,13.8,-,N/A,,Clear,230,2013-12-10 01:15:00
7:35 PM,5.5,-2.7,69,30.23,10.0,SW,15.0,-,N/A,,Clear,220,2013-12-10 01:35:00
7:55 PM,5.0,-3.1,69,30.23,10.0,SW,15.0,-,N/A,,Clear,220,2013-12-10 01:55:00
8:15 PM,4.5,-3.5,70,30.21,10.0,SW,15.0,-,N/A,,Clear,220,2013-12-10 02:15:00
8:35 PM,4.8,-3.1,70,30.21,10.0,SSW,15.0,-,N/A,,Clear,210,2013-12-10 02:35:00
8:55 PM,5.4,-2.6,70,30.19,10.0,SSW,15.0,-,N/A,,Clear,210,2013-12-10 02:55:00
9:15 PM,5.5,-2.6,69,30.17,10.0,SSW,15.0,-,N/A,,Clear,210,2013-12-10 03:15:00
9:35 PM,6.6,-2.2,67,30.17,10.0,SW,15.0,-,N/A,,Clear,220,2013-12-10 03:35:00
9:55 PM,6.8,-2.2,67,30.17,10.0,SSW,12.7,-,N/A,,Clear,210,2013-12-10 03:55:00
10:15 PM,8.4,-0.8,66,30.16,10.0,SSW,17.3,-,N/A,,Clear,210,2013-12-10 04:15:00
10:35 PM,9.7,0.3,66,30.14,10.0,SSW,13.8,-,N/A,,Clear,210,2013-12-10 04:35:00
10:55 PM,11.8,1.9,65,30.13,10.0,SW,16.1,-,N/A,,Clear,220,2013-12-10 04:55:00
11:15 PM,12.6,2.8,65,30.13,10.0,SW,18.4,24.2,N/A,,Scattered Clouds,220,2013-12-10 05:15:00
11:35 PM,13.1,3.0,64,30.12,10.0,SW,20.7,26.5,N/A,,Clear,230,2013-12-10 05:35:00
11:55 PM,13.1,3.2,65,30.11,10.0,WSW,21.9,-,N/A,,Scattered Clouds,240,2013-12-10 05:55:00